FW9019 Weather Reports


Display with metric or nautical units.
time (UTC)temp
F
wind
direction
speed
MPH
gust
MPH
rain 1hr
in
rain 24hr
in
rain mn
in
humidity
%
barometer
mb
20260509054117 53 0.0 0.0 0.00 0.00 0.00 90 1008.6
20260509053107 53 0.0 0.0 0.00 0.00 0.00 90 1008.5
20260509052047 53 0.0 0.0 0.00 0.00 0.00 90 1008.6
20260509051118 53 151 0.0 1.0 0.00 0.00 0.00 90 1008.5
20260509050131 53 166 0.0 1.0 0.00 0.00 0.00 90 1008.6
20260509045018 53 162 1.0 2.0 0.00 0.00 0.00 90 1008.5
20260509044030 53 158 0.0 1.0 0.00 0.00 0.00 90 1008.6
20260509043111 53 158 0.0 1.0 0.00 0.00 0.00 90 1008.4
20260509042051 53 211 0.0 1.0 0.00 0.00 0.00 90 1008.5
20260509041031 53 150 0.0 1.0 0.00 0.00 0.00 90 1008.3
20260509040114 53 0.0 0.0 0.00 0.00 0.00 89 1008.3
20260509035054 53 152 0.0 1.0 0.00 0.00 0.00 89 1008.4
20260509034034 53 0.0 0.0 0.00 0.00 0.00 89 1008.4
20260509033115 53 0.0 0.0 0.00 0.00 0.00 89 1008.4
20260509032055 53 0.0 0.0 0.00 0.00 0.00 89 1008.4
20260509031035 53 152 0.0 1.0 0.00 0.00 0.00 89 1008.4
20260509030117 53 0.0 0.0 0.00 0.00 0.00 89 1008.5
20260509025058 53 152 0.0 1.0 0.00 0.00 0.00 89 1008.7
20260509024037 53 152 0.0 1.0 0.00 0.00 0.00 89 1008.7
20260509023017 53 0.0 0.0 0.00 0.00 0.00 89 1008.8
20260509022100 53 151 0.0 1.0 0.00 0.00 0.00 89 1009.0
20260509021110 53 152 1.0 2.0 0.00 0.00 0.00 89 1008.7
20260509020020 53 152 1.0 3.0 0.00 0.00 0.00 89 1008.7
20260509015101 53 213 0.0 1.0 0.00 0.00 0.00 89 1008.4
20260509014101 53 134 0.0 2.0 0.00 0.00 0.00 89 1008.5
20260509013021 53 135 0.0 1.0 0.00 0.00 0.00 89 1008.5
20260509012103 53 134 1.0 2.0 0.00 0.00 0.00 89 1008.4
20260509011043 53 138 1.0 2.0 0.00 0.00 0.00 89 1008.4
20260509010043 53 138 0.0 1.0 0.00 0.00 0.00 89 1008.6
20260509005125 53 0.0 0.0 0.00 0.00 0.00 89 1008.7
20260509004045 53 0.0 0.0 0.00 0.00 0.00 88 1008.5
20260509003025 53 0.0 0.0 0.00 0.00 0.00 88 1008.4
20260509002127 53 138 0.0 1.0 0.00 0.00 0.00 88 1008.5
20260509001047 53 138 0.0 1.0 0.00 0.00 0.00 88 1008.8
20260509000027 53 138 1.0 3.0 0.00 0.00 0.00 88 1008.9
20260508235130 53 140 0.0 1.0 0.00 0.00 0.00 88 1008.9
20260508234049 53 0.0 0.0 0.00 0.00 0.00 88 1008.9
20260508233030 53 140 0.0 2.0 0.00 0.00 0.00 87 1008.8
20260508232111 53 140 1.0 2.0 0.00 0.00 0.00 87 1008.8
20260508231051 53 0.0 0.0 0.00 0.00 0.00 87 1009.0
20260508230031 53 140 0.0 1.0 0.00 0.00 0.00 87 1009.2
20260508225113 53 0.0 0.0 0.00 0.00 0.00 86 1009.1
20260508224053 54 140 0.0 1.0 0.00 0.00 0.00 86 1008.9
20260508223033 54 140 0.0 2.0 0.00 0.00 0.00 85 1009.1
20260508222135 54 0.0 0.0 0.00 0.00 0.00 85 1009.3
20260508221115 54 140 0.0 1.0 0.00 0.00 0.00 84 1009.3
20260508220035 54 0.0 0.0 0.00 0.00 0.00 84 1009.4
20260508215117 54 140 0.0 1.0 0.00 0.00 0.00 83 1009.5
20260508214057 55 0.0 0.0 0.00 0.00 0.00 82 1009.4
20260508213057 55 140 0.0 2.0 0.00 0.00 0.00 81 1009.2
20260508212017 56 140 1.0 2.0 0.00 0.00 0.00 79 1009.2
20260508211100 57 156 1.0 3.0 0.00 0.00 0.00 76 1009.1
20260508210100 60 194 2.0 5.0 0.00 0.00 0.00 66 1009.2
20260508205019 61 0.0 0.0 0.00 0.00 0.00 60 1008.8
20260508204121 62 0.0 0.0 0.00 0.00 0.00 57 1008.7
20260508203041 63 119 1.0 2.0 0.00 0.00 0.00 54 1008.7
20260508202021 64 118 1.0 3.0 0.00 0.00 0.00 50 1008.9
20260508201103 64 124 0.0 2.0 0.00 0.00 0.00 51 1008.9
20260508200043 64 124 0.0 1.0 0.00 0.00 0.00 50 1009.1
20260508195023 64 124 1.0 2.0 0.00 0.00 0.00 50 1009.1
20260508194105 64 124 1.0 2.0 0.00 0.00 0.00 49 1009.2
20260508193045 64 124 1.0 3.0 0.00 0.00 0.00 49 1009.4
20260508192025 63 124 1.0 2.0 0.00 0.00 0.00 51 1009.6
20260508191107 63 124 1.0 1.0 0.00 0.00 0.00 51 1009.7
20260508190047 63 125 2.0 3.0 0.00 0.00 0.00 50 1009.9
20260508185027 62 119 2.0 3.0 0.00 0.00 0.00 51 1010.0
20260508184110 62 105 1.0 2.0 0.00 0.00 0.00 52 1010.3
20260508183049 62 106 2.0 3.0 0.00 0.00 0.00 51 1010.4
20260508182029 62 106 2.0 3.0 0.00 0.00 0.00 50 1010.5
20260508181131 62 108 1.0 3.0 0.00 0.00 0.00 50 1010.6
20260508180051 61 108 1.0 2.0 0.00 0.00 0.00 50 1010.5
20260508175051 61 106 1.0 3.0 0.00 0.00 0.00 49 1010.6
20260508174113 61 116 2.0 3.0 0.00 0.00 0.00 49 1010.8
20260508173053 63 168 2.0 5.0 0.00 0.00 0.00 47 1010.8
20260508172033 66 88 2.0 3.0 0.00 0.00 0.00 45 1010.7
20260508171115 67 121 2.0 5.0 0.00 0.00 0.00 43 1010.8
20260508170055 65 80 2.0 5.0 0.00 0.00 0.00 44 1011.1
20260508165035 65 67 2.0 6.0 0.00 0.00 0.00 44 1011.3
20260508164117 65 131 1.0 2.0 0.00 0.00 0.00 44 1011.5
20260508163026 64 92 2.0 5.0 0.00 0.00 0.00 44 1011.6
20260508162037 66 120 3.0 6.0 0.00 0.00 0.00 41 1011.8
20260508161018 66 78 3.0 7.0 0.00 0.00 0.00 42 1011.6
20260508160031 64 101 1.0 3.0 0.00 0.00 0.00 45 1011.9
20260508155041 63 111 1.0 3.0 0.00 0.00 0.00 45 1012.0
20260508154020 63 99 2.0 2.0 0.00 0.00 0.00 46 1011.9
20260508153030 62 106 1.0 3.0 0.00 0.00 0.00 47 1012.0
20260508152041 62 104 2.0 5.0 0.00 0.00 0.00 46 1012.1
20260508151025 63 88 2.0 5.0 0.00 0.00 0.00 45 1012.1
20260508145205 63 94 1.0 3.0 0.00 0.00 0.00 44 1012.2
20260508144055 63 79 2.0 7.0 0.00 0.00 0.00 44 1012.3
20260508143035 63 86 2.0 5.0 0.00 0.00 0.00 44 1012.5
20260508142136 62 89 2.0 3.0 0.00 0.00 0.00 45 1012.5
20260508141025 61 90 2.0 3.0 0.00 0.00 0.00 46 1012.6
20260508140108 60 102 2.0 5.0 0.00 0.00 0.00 47 1012.7
20260508135047 60 90 2.0 5.0 0.00 0.00 0.00 46 1012.7
20260508134027 59 91 1.0 2.0 0.00 0.00 0.00 47 1012.8
20260508133130 58 80 2.0 6.0 0.00 0.00 0.00 48 1012.8
20260508132018 58 93 3.0 3.0 0.00 0.00 0.00 47 1013.0
20260508131120 58 97 2.0 7.0 0.00 0.00 0.00 48 1012.9
20260508130111 58 108 1.0 3.0 0.00 0.00 0.00 47 1013.0
20260508125051 59 108 1.0 1.0 0.00 0.00 0.00 45 1012.8
20260508124102 57 108 1.0 2.0 0.00 0.00 0.00 47 1012.8
20260508123144 56 108 1.0 1.0 0.00 0.00 0.00 48 1012.6
20260508122022 54 112 1.0 2.0 0.00 0.00 0.00 51 1012.7
20260508121053 53 110 0.0 1.0 0.00 0.00 0.00 54 1012.8
20260508120115 50 0.0 0.0 0.00 0.00 0.00 58 1012.9
20260508115055 49 0.0 0.0 0.00 0.00 0.00 59 1012.6
20260508114035 48 0.0 0.0 0.00 0.00 0.00 61 1012.6
20260508113120 46 0.0 0.0 0.00 0.00 0.00 64 1012.6
20260508112026 47 0.0 0.0 0.00 0.00 0.00 63 1012.7
20260508111108 47 0.0 0.0 0.00 0.00 0.00 62 1012.6
20260508110049 47 110 0.0 1.0 0.00 0.00 0.00 62 1012.4
20260508105059 47 110 0.0 1.0 0.00 0.00 0.00 61 1012.3
20260508104130 47 110 0.0 1.0 0.00 0.00 0.00 61 1012.2
20260508103110 47 110 0.0 1.0 0.00 0.00 0.00 62 1012.2
20260508102030 47 110 0.0 1.0 0.00 0.00 0.00 61 1012.2
20260508101112 48 110 0.0 1.0 0.00 0.00 0.00 62 1012.2
20260508100052 48 0.0 0.0 0.00 0.00 0.00 61 1012.3
20260508095032 48 0.0 0.0 0.00 0.00 0.00 60 1012.3
20260508094134 49 0.0 0.0 0.00 0.00 0.00 59 1012.3
20260508093043 49 110 0.0 1.0 0.00 0.00 0.00 58 1012.3
20260508092105 50 110 0.0 1.0 0.00 0.00 0.00 57 1012.3
20260508091045 50 0.0 0.0 0.00 0.00 0.00 56 1012.3
20260508090025 51 110 0.0 1.0 0.00 0.00 0.00 55 1012.3
20260508085107 51 110 1.0 2.0 0.00 0.00 0.00 55 1012.3
20260508084107 51 110 1.0 2.0 0.00 0.00 0.00 55 1012.5
20260508083100 51 110 0.0 1.0 0.00 0.00 0.00 55 1012.6
20260508082110 51 109 1.0 3.0 0.00 0.00 0.00 55 1012.6
20260508081113 51 108 0.0 1.0 0.00 0.00 0.00 55 1012.7
20260508080120 51 108 1.0 3.0 0.00 0.00 0.00 55 1012.8
20260508075041 51 108 1.0 2.0 0.00 0.00 0.00 55 1013.0
20260508074020 51 108 1.0 2.0 0.00 0.00 0.00 54 1012.8
20260508073031 52 108 2.0 3.0 0.00 0.00 0.00 52 1012.7
20260508072113 52 113 1.0 2.0 0.00 0.00 0.00 51 1013.1
20260508071042 51 113 1.0 2.0 0.00 0.00 0.00 51 1013.0
20260508070033 51 113 1.0 3.0 0.00 0.00 0.00 52 1012.8
20260508065044 51 113 0.0 2.0 0.00 0.00 0.00 53 1012.9
20260508064024 51 134 0.0 3.0 0.00 0.00 0.00 53 1013.1
20260508063106 50 136 1.0 2.0 0.00 0.00 0.00 54 1013.1
20260508062148 50 136 0.0 2.0 0.00 0.00 0.00 54 1013.2
20260508061058 50 136 0.0 1.0 0.00 0.00 0.00 54 1013.1
20260508060109 50 136 0.0 1.0 0.00 0.00 0.00 54 1013.3
20260508055049 50 0.0 0.0 0.00 0.00 0.00 55 1013.2